Zurück zum Katalog

STARLINK-5222

AktivKommunikationVLEO
NORAD 54068·PAYLOAD·🇺🇸 United States

Gestartet Oct 20, 2022 von Cape Canaveral Space Force Station

Loading…

Nächste Überflüge (nächste 24 Stunden)

TLE

AktuellSource: CelesTrak SupGP

Epoche: Sep 15, 2026, 02:03 UTC

1 54068C 22136T   26258.08590278 -.00026679  00000+0 -76347-3 0  2588
2 54068  53.1579 204.8218 0001427  96.7257  10.8939 15.35404469    12

Verfolge STARLINK-5222 in Echtzeit mit AllMySat

Download on the App Store